This is the latest recevied weather packets stored in our database for station/object DL3SDW-13. If no packets are shown the sender has not sent any weather packets the latest 10 day(s).
| Time | Temp. | Humidity | Pressure | Rain* | Wind** | Luminosity | Snow |
|---|---|---|---|---|---|---|---|
| 1777753817 | 25° C | 29% | 1020 hPa | - | - | - | - |
| 1777738900 | 24.44° C | 27% | 1020 hPa | - | - | - | - |
| 1777731447 | 24.44° C | 27% | 1022 hPa | - | - | - | - |
| 1777723988 | 23.89° C | 29% | 1024 hPa | - | - | - | - |
| 1777716532 | 23.89° C | 30% | 1025 hPa | - | - | - | - |
| 1777709075 | 23.89° C | 29% | 1026 hPa | - | - | - | - |
| 1777701623 | 23.89° C | 29% | 1026 hPa | - | - | - | - |
| 1777671795 | 24.44° C | 26% | 1027 hPa | - | - | - | - |
| 1777656881 | 24.44° C | 24% | 1026 hPa | - | - | - | - |
| 1777641968 | 23.33° C | 27% | 1028 hPa | - | - | - | - |
| 1777627059 | 22.78° C | 26% | 1030 hPa | - | - | - | - |
| 1777612145 | 22.78° C | 27% | 1030 hPa | - | - | - | - |
| 1777604688 | 22.78° C | 26% | 1030 hPa | - | - | - | - |
| 1777589773 | 23.89° C | 23% | 1030 hPa | - | - | - | - |
| 1777582317 | 23.33° C | 22% | 1029 hPa | - | - | - | - |
| 1777567405 | 22.78° C | 18% | 1028 hPa | - | - | - | - |
| 1777559954 | 22.78° C | 19% | 1028 hPa | - | - | - | - |
| 1777552492 | 22.78° C | 19% | 1029 hPa | - | - | - | - |
| 1777530128 | 23.89° C | 25% | 1030 hPa | - | - | - | - |
| 1777522669 | 23.89° C | 24% | 1030 hPa | - | - | - | - |
| 1777515210 | 23.33° C | 20% | 1029 hPa | - | - | - | - |
| 1777500298 | 25° C | 22% | 1028 hPa | - | - | - | - |
| 1777492841 | 25° C | 28% | 1027 hPa | - | - | - | - |
| 1777477930 | 26.11° C | 24% | 1025 hPa | - | - | - | - |
| 1777470475 | 25° C | 27% | 1025 hPa | - | - | - | - |
* Rain since midnight (hover to see other rain measurements)
** Current wind speed in m/s (hover to see current wind gust speed)